GALAXY 36 (G-36)

Last updated on Mon Oct 14 2024 00:02:42 GMT+0000 (Coordinated Universal Time)

1 54742U 22170B 24287.24589545 -.00000186 00000+0 00000+0 0 9993 2 54742 0.0143 220.1245 0002107 274.0863 247.6370 1.00271207 6632
UTC large
Height (km)
Speed (km/s)
/
Latitude / Longitude
Inclination (degrees)
Orbital Period (minutes)
Azimuth
Elevation
Range (km)
Doppler Factor

Next 0 passes for location: London (51.5072 / 0.1276)

Sorry there are no passes over London.